Total_Precipitation_Accumulation
0.56 0.52 0.63 0.76 0.70 0.73 0.98 1.01 0.91 0.57 0.51 0.59 0.59 0.58 0.55 0.52 0.49 0.51 0.65 0.68 0.67 0.72 0.74 0.79 0.88 0.96 0.96 1.02 1.11 1.26 1.46 1.59 1.63 1.65 1.77 1.88 1.93 1.97 1.93 2.03 2.09 2.04 2.06 2.08
0.56 0.37 0.45 0.57 0.49 0.52 0.57 0.57 0.61 0.50 0.56 0.59 0.56 0.51 0.51 0.52 0.51 0.53 0.64 0.69 0.71 0.72 0.76 0.81 0.87 0.94 0.93 0.93 1.03 1.17 1.35 1.44 1.51 1.64 1.76 1.93 2.00 2.08 2.09 2.09 2.14 2.13 2.07 2.06
0.92 0.46 0.70 0.87 0.61 0.53 0.54 0.54 0.56 0.63 0.66 0.59 0.56 0.54 0.55 0.55 0.55 0.56 0.56 0.60 0.66 0.74 0.79 0.82 0.85 0.87 0.91 0.91 0.93 1.04 1.21 1.32 1.40 1.56 1.66 1.76 1.83 1.88 1.94 1.91 1.90 1.97 2.01 1.92
1.32 0.97 1.33 0.78 0.48 0.46 0.49 0.54 0.56 0.59 0.60 0.60 0.64 0.63 0.58 0.57 0.59 0.59 0.57 0.56 0.59 0.70 0.77 0.75 0.78 0.84 0.86 0.87 0.88 0.97 1.09 1.20 1.24 1.39 1.54 1.59 1.64 1.68 1.72 1.68 1.71 1.83 1.82 1.68
1.71 1.27 0.78 0.43 0.37 0.50 0.59 0.66 0.59 0.55 0.53 0.53 0.55 0.58 0.61 0.59 0.58 0.60 0.59 0.56 0.59 0.67 0.71 0.71 0.75 0.81 0.80 0.81 0.82 0.90 0.99 1.07 1.10 1.19 1.38 1.41 1.49 1.58 1.57 1.59 1.61 1.62 1.61 1.53
1.84 1.42 0.77 0.44 0.29 0.35 0.53 0.77 0.54 0.49 0.53 0.55 0.56 0.76 0.74 0.67 0.64 0.62 0.58 0.56 0.61 0.66 0.64 0.67 0.73 0.74 0.73 0.75 0.78 0.85 0.92 0.99 1.01 1.04 1.18 1.22 1.27 1.36 1.39 1.42 1.49 1.53 1.52 1.47
1.51 1.22 0.59 0.37 0.29 0.33 0.80 0.95 0.53 0.50 0.56 0.60 0.71 0.83 0.76 0.70 0.68 0.65 0.63 0.62 0.61 0.63 0.65 0.69 0.73 0.75 0.75 0.74 0.76 0.81 0.84 0.89 0.93 0.99 1.07 1.10 1.14 1.19 1.27 1.33 1.40 1.45 1.48 1.43
1.12 1.27 0.71 0.37 0.38 0.66 0.83 0.52 0.46 0.49 0.52 0.57 0.58 0.55 0.57 0.61 0.62 0.61 0.62 0.63 0.62 0.64 0.69 0.70 0.71 0.70 0.68 0.75 0.75 0.77 0.82 0.88 0.93 0.97 1.00 1.01 1.06 1.14 1.16 1.27 1.41 1.42 1.39 1.40
0.85 0.79 0.58 0.46 0.54 0.59 0.49 0.44 0.40 0.44 0.48 0.51 0.54 0.53 0.57 0.58 0.58 0.59 0.60 0.60 0.61 0.65 0.69 0.68 0.68 0.67 0.67 0.73 0.74 0.75 0.80 0.86 0.93 0.98 1.00 1.04 1.07 1.14 1.19 1.29 1.43 1.43 1.36 1.33
0.57 0.47 0.40 0.40 0.41 0.42 0.40 0.41 0.40 0.42 0.47 0.48 0.53 0.53 0.56 0.56 0.57 0.58 0.56 0.56 0.55 0.60 0.65 0.67 0.69 0.70 0.70 0.72 0.75 0.77 0.81 0.82 0.87 0.98 1.05 1.05 1.08 1.14 1.18 1.25 1.41 1.47 1.43 1.39
0.51 0.36 0.32 0.31 0.32 0.37 0.39 0.37 0.36 0.38 0.41 0.44 0.46 0.48 0.50 0.54 0.56 0.57 0.57 0.55 0.53 0.56 0.63 0.68 0.69 0.70 0.73 0.77 0.81 0.83 0.81 0.81 0.84 0.94 1.01 1.05 1.09 1.14 1.20 1.20 1.42 1.61 1.51 1.50
0.51 0.35 0.39 0.35 0.29 0.31 0.35 0.35 0.34 0.36 0.38 0.37 0.39 0.44 0.45 0.48 0.51 0.52 0.55 0.56 0.55 0.54 0.61 0.66 0.69 0.73 0.77 0.85 0.88 0.88 0.87 0.86 0.88 0.94 0.97 1.00 1.04 1.12 1.23 1.25 1.33 1.33 1.38 1.47
0.39 0.32 0.33 0.30 0.25 0.24 0.30 0.31 0.31 0.33 0.37 0.40 0.38 0.40 0.45 0.47 0.48 0.49 0.50 0.52 0.56 0.58 0.61 0.64 0.67 0.70 0.79 0.89 0.92 0.91 0.93 0.95 0.96 0.97 0.97 1.00 0.98 1.02 1.14 1.17 1.19 1.21 1.24 1.31
0.28 0.27 0.28 0.22 0.22 0.21 0.24 0.26 0.26 0.27 0.29 0.35 0.39 0.39 0.43 0.45 0.45 0.45 0.48 0.50 0.51 0.54 0.58 0.60 0.62 0.68 0.77 0.89 0.95 0.96 0.97 1.02 1.05 1.02 1.00 1.01 0.98 0.96 1.02 1.14 1.25 1.29 1.32 1.36
0.23 0.24 0.25 0.21 0.18 0.17 0.19 0.22 0.24 0.25 0.26 0.30 0.34 0.39 0.43 0.46 0.45 0.45 0.46 0.47 0.45 0.48 0.53 0.56 0.59 0.68 0.75 0.85 0.94 1.00 1.05 1.06 1.08 1.08 1.05 1.02 1.01 1.01 1.02 1.07 1.17 1.30 1.39 1.48
0.25 0.21 0.19 0.18 0.18 0.18 0.19 0.23 0.26 0.28 0.30 0.32 0.33 0.37 0.44 0.48 0.48 0.46 0.45 0.46 0.48 0.49 0.52 0.57 0.61 0.69 0.77 0.86 0.95 1.04 1.13 1.22 1.20 1.15 1.13 1.09 1.07 1.09 1.11 1.14 1.17 1.23 1.34 1.44
0.33 0.27 0.23 0.22 0.20 0.20 0.22 0.27 0.31 0.32 0.32 0.34 0.36 0.38 0.41 0.44 0.45 0.44 0.45 0.46 0.50 0.53 0.54 0.58 0.66 0.71 0.76 0.85 0.97 1.09 1.17 1.22 1.25 1.19 1.16 1.16 1.18 1.18 1.20 1.23 1.26 1.25 1.26 1.37
0.32 0.32 0.30 0.30 0.29 0.26 0.24 0.25 0.28 0.30 0.33 0.37 0.37 0.38 0.40 0.45 0.50 0.51 0.50 0.48 0.47 0.47 0.50 0.57 0.68 0.73 0.76 0.85 0.97 1.07 1.15 1.18 1.14 1.15 1.19 1.23 1.28 1.27 1.27 1.27 1.26 1.27 1.30 1.35
0.25 0.26 0.25 0.24 0.26 0.27 0.27 0.28 0.29 0.30 0.32 0.34 0.37 0.39 0.42 0.48 0.53 0.56 0.54 0.51 0.49 0.51 0.57 0.62 0.72 0.71 0.77 0.90 1.02 1.07 1.14 1.16 1.15 1.15 1.19 1.27 1.27 1.21 1.23 1.25 1.28 1.29 1.29 1.30
0.23 0.24 0.24 0.24 0.24 0.27 0.29 0.28 0.28 0.28 0.30 0.33 0.35 0.36 0.39 0.45 0.52 0.56 0.54 0.53 0.58 0.64 0.65 0.69 0.68 0.69 0.79 0.94 1.08 1.09 1.12 1.13 1.14 1.18 1.21 1.21 1.22 1.22 1.22 1.22 1.29 1.35 1.34 1.31
0.24 0.25 0.25 0.26 0.26 0.25 0.27 0.29 0.30 0.31 0.33 0.36 0.41 0.44 0.46 0.49 0.53 0.56 0.56 0.56 0.58 0.61 0.64 0.67 0.69 0.78 0.90 1.05 1.09 1.06 1.08 1.11 1.14 1.21 1.25 1.25 1.26 1.24 1.23 1.24 1.29 1.34 1.34 1.32
0.28 0.30 0.30 0.30 0.30 0.29 0.29 0.31 0.34 0.34 0.35 0.38 0.42 0.46 0.49 0.52 0.54 0.55 0.57 0.64 0.68 0.72 0.67 0.63 0.72 0.90 1.06 1.08 1.00 1.00 1.03 1.08 1.14 1.22 1.28 1.27 1.28 1.28 1.24 1.25 1.31 1.31 1.29 1.29
0.33 0.35 0.37 0.38 0.40 0.40 0.37 0.38 0.40 0.41 0.44 0.46 0.49 0.52 0.55 0.58 0.60 0.62 0.64 0.64 0.68 0.72 0.69 0.70 0.80 0.94 1.02 0.96 0.92 0.94 0.98 1.03 1.11 1.22 1.29 1.31 1.33 1.32 1.30 1.29 1.32 1.34 1.34 1.30
0.36 0.38 0.42 0.44 0.44 0.41 0.42 0.43 0.44 0.47 0.50 0.53 0.56 0.59 0.60 0.59 0.58 0.60 0.65 0.67 0.70 0.71 0.71 0.75 0.82 0.91 0.93 0.87 0.85 0.90 0.97 1.04 1.14 1.24 1.30 1.32 1.34 1.33 1.33 1.37 1.41 1.38 1.33 1.28
0.40 0.41 0.42 0.43 0.45 0.47 0.47 0.44 0.42 0.44 0.46 0.49 0.52 0.54 0.56 0.62 0.69 0.69 0.65 0.65 0.68 0.70 0.69 0.73 0.79 0.84 0.84 0.83 0.85 0.92 1.00 1.12 1.28 1.41 1.43 1.40 1.35 1.34 1.34 1.39 1.44 1.41 1.35 1.30
0.47 0.49 0.50 0.52 0.54 0.55 0.54 0.51 0.50 0.50 0.51 0.50 0.50 0.51 0.54 0.60 0.67 0.70 0.68 0.65 0.67 0.71 0.72 0.75 0.78 0.81 0.81 0.83 0.88 0.95 1.02 1.12 1.26 1.35 1.33 1.32 1.32 1.34 1.34 1.38 1.38 1.37 1.34 1.31
0.52 0.51 0.50 0.51 0.53 0.55 0.59 0.61 0.62 0.63 0.64 0.64 0.62 0.57 0.59 0.63 0.66 0.67 0.65 0.64 0.66 0.68 0.72 0.78 0.81 0.81 0.83 0.87 0.93 0.98 1.02 1.08 1.22 1.35 1.35 1.33 1.34 1.35 1.34 1.34 1.35 1.36 1.35 1.33